EW9034 Weather Reports


Display with metric or nautical units.
time (UTC)temp
F
wind
direction
speed
MPH
gust
MPH
rain 1hr
in
rain 24hr
in
rain mn
in
humidity
%
barometer
mb
20260508133027 49 231 4.0 7.0 0.00 0.00 0.00 72 1009.0
20260508131522 48 227 6.0 8.0 0.00 0.00 0.00 72 1009.1
20260508130018 46 223 3.0 7.0 0.00 0.00 0.00 74 1009.0
20260508124513 44 222 4.0 7.0 0.00 0.00 0.00 75 1009.1
20260508123012 42 220 4.0 7.0 0.00 0.00 0.00 76 1009.1
20260508121516 41 221 4.0 6.0 0.00 0.00 0.00 78 1009.0
20260508120004 40 221 5.0 8.0 0.00 0.00 0.00 78 1009.1
20260508114502 40 216 6.0 8.0 0.00 0.00 0.00 73 1009.3
20260508113002 40 213 6.0 7.0 0.00 0.00 0.00 73 1009.2
20260508111501 41 215 5.0 7.0 0.00 0.00 0.00 76 1009.2
20260508110104 41 217 6.0 8.0 0.00 0.00 0.00 75 1009.2
20260508110001 41 219 6.0 8.0 0.00 0.00 0.00 75 1009.3
20260508104501 41 222 5.0 8.0 0.00 0.00 0.00 77 1009.4
20260508103119 41 223 5.0 7.0 0.00 0.00 0.00 75 1009.3
20260508101559 41 224 6.0 9.0 0.00 0.00 0.00 78 1009.3
20260508100058 39 226 5.0 8.0 0.00 0.00 0.00 78 1009.3
20260508094609 39 236 4.0 7.0 0.00 0.00 0.00 78 1009.2
20260508093056 39 238 5.0 8.0 0.00 0.00 0.00 76 1009.3
20260508091601 39 234 4.0 6.0 0.00 0.00 0.00 74 1009.2
20260508090054 39 233 4.0 7.0 0.00 0.00 0.00 72 1009.3
20260508084553 40 223 2.0 5.0 0.00 0.00 0.00 69 1009.3
20260508083131 41 223 3.0 7.0 0.00 0.00 0.00 67 1009.3
20260508081555 42 227 6.0 12.0 0.00 0.00 0.00 69 1009.4
20260508080055 42 236 9.0 13.0 0.00 0.00 0.00 68 1009.3
20260508074544 38 339 5.0 6.0 0.00 0.00 0.00 65 1009.2
20260508073041 39 346 1.0 4.0 0.00 0.00 0.00 63 1009.2
20260508071543 39 347 2.0 4.0 0.00 0.00 0.00 62 1009.2
20260508070038 39 351 3.0 5.0 0.00 0.00 0.00 67 1009.2
20260508064548 40 355 2.0 4.0 0.00 0.00 0.00 62 1009.1
20260508063037 40 355 3.0 4.0 0.00 0.00 0.00 62 1009.2
20260508061532 40 355 3.0 5.0 0.00 0.00 0.00 62 1009.3
20260508060026 41 355 2.0 3.0 0.00 0.00 0.00 62 1009.2
20260508054524 41 355 2.0 4.0 0.00 0.00 0.00 62 1009.1
20260508053022 42 355 0.0 2.0 0.00 0.00 0.00 59 1009.0
20260508051521 42 355 2.0 4.0 0.00 0.00 0.00 55 1009.0
20260508050021 43 355 3.0 5.0 0.00 0.00 0.00 58 1008.8
20260508044514 43 355 2.0 4.0 0.00 0.00 0.00 52 1008.8
20260508043010 45 355 4.0 5.0 0.00 0.00 0.00 52 1008.8
20260508041513 47 355 2.0 4.0 0.00 0.00 0.00 50 1008.5
20260508040007 51 355 0.0 2.0 0.00 0.00 0.00 51 1008.4
20260508034509 52 355 0.0 2.0 0.00 0.00 0.00 49 1008.3
20260508033006 53 355 2.0 4.0 0.00 0.00 0.00 48 1008.2
20260508031505 55 355 1.0 4.0 0.00 0.00 0.00 44 1007.9
20260508030007 58 355 4.0 6.0 0.00 0.00 0.00 39 1007.8
20260508024504 60 355 4.0 6.0 0.00 0.00 0.00 36 1007.7
20260508023004 63 355 4.0 6.0 0.00 0.00 0.00 34 1007.3
20260508021502 65 360 5.0 9.0 0.00 0.00 0.00 32 1007.2
20260508020008 67 360 7.0 10.0 0.00 0.00 0.00 31 1007.1
20260508014504 68 360 5.0 12.0 0.00 0.00 0.00 30 1006.9
20260508013003 69 360 6.0 14.0 0.00 0.00 0.00 28 1006.8
20260508011501 70 15 13.0 18.0 0.00 0.00 0.00 26 1006.7
20260508010000 71 336 11.0 16.0 0.00 0.00 0.00 26 1006.8
20260508004605 72 325 15.0 20.0 0.00 0.00 0.00 24 1006.7
20260508003112 71 346 11.0 23.0 0.00 0.00 0.00 24 1006.9
20260508001559 72 343 12.0 21.0 0.00 0.00 0.00 25 1006.9
20260508000057 70 355 15.0 24.0 0.00 0.00 0.00 26 1006.9
20260507234559 73 355 12.0 21.0 0.00 0.00 0.00 23 1006.8
20260507233058 73 17 15.0 20.0 0.00 0.00 0.00 23 1006.7
20260507231608 73 321 14.0 26.0 0.00 0.00 0.00 24 1006.6
20260507230057 72 15 9.0 18.0 0.00 0.00 0.00 24 1006.6
20260507224605 73 348 16.0 26.0 0.00 0.00 0.00 23 1006.7
20260507223054 73 326 11.0 21.0 0.00 0.00 0.00 24 1006.8
20260507221552 73 360 13.0 21.0 0.00 0.00 0.00 24 1006.7
20260507220050 72 311 7.0 21.0 0.00 0.00 0.00 26 1006.8
20260507214649 73 349 15.0 23.0 0.00 0.00 0.00 26 1006.9
20260507213108 72 350 19.0 27.0 0.00 0.00 0.00 27 1006.9
20260507211557 73 331 15.0 27.0 0.00 0.00 0.00 25 1007.0
20260507210056 73 340 15.0 25.0 0.00 0.00 0.00 26 1006.9
20260507204601 72 308 12.0 23.0 0.00 0.00 0.00 27 1007.2
20260507203051 70 334 15.0 27.0 0.00 0.00 0.00 28 1007.3
20260507201551 69 329 11.0 24.0 0.00 0.00 0.00 31 1007.3
20260507200050 70 329 16.0 24.0 0.00 0.00 0.00 30 1007.3
20260507194550 71 331 20.0 29.0 0.00 0.00 0.00 30 1007.3
20260507193048 70 328 15.0 25.0 0.00 0.00 0.00 33 1007.1
20260507191547 71 346 17.0 29.0 0.00 0.00 0.00 31 1007.1
20260507190045 71 339 15.0 22.0 0.00 0.00 0.00 34 1007.1
20260507184544 70 321 14.0 24.0 0.00 0.00 0.00 34 1007.2
20260507183042 70 319 17.0 23.0 0.00 0.00 0.00 34 1007.3
20260507181537 69 299 8.0 19.0 0.00 0.00 0.00 34 1007.4
20260507180037 69 317 8.0 18.0 0.00 0.00 0.00 35 1007.6
20260507174537 68 323 9.0 15.0 0.00 0.00 0.00 37 1007.7
20260507173034 66 300 5.0 13.0 0.00 0.00 0.00 42 1007.9
20260507171531 67 327 8.0 14.0 0.00 0.00 0.00 40 1008.2
20260507170025 67 325 6.0 11.0 0.00 0.00 0.00 40 1008.4
20260507164523 65 299 11.0 16.0 0.00 0.00 0.00 43 1008.6
20260507163021 64 298 8.0 14.0 0.00 0.00 0.00 41 1008.8
20260507161519 64 296 8.0 18.0 0.00 0.00 0.00 41 1008.9
20260507160019 63 300 9.0 16.0 0.00 0.00 0.00 43 1008.9
20260507154515 63 293 10.0 15.0 0.00 0.00 0.00 44 1008.9
20260507153012 60 290 7.0 14.0 0.00 0.00 0.00 48 1009.0
20260507151511 61 286 9.0 13.0 0.00 0.00 0.00 47 1008.9
20260507150011 58 244 8.0 13.0 0.00 0.00 0.00 50 1009.0
20260507144503 56 240 8.0 14.0 0.00 0.00 0.00 54 1009.0
20260507143103 55 225 8.0 12.0 0.00 0.00 0.00 57 1009.1
20260507141602 53 219 6.0 10.0 0.00 0.00 0.00 58 1009.2
20260507140113 52 213 7.0 10.0 0.00 0.00 0.00 58 1009.2
20260507134553 50 217 7.0 9.0 0.00 0.00 0.00 65 1009.1